Previsão horária em Barsove

Hoje, 22 Outubro, Quinta-feira

Tempo Temperatura Precipitação Vento Pressão Humidade
00:00 +10°C° 0 mm 2 m/s 767 mmHg 64%
01:00 +10°C° 0 mm 2 m/s 767 mmHg 63%
02:00 +10°C° 0 mm 2 m/s 766 mmHg 63%
03:00 +10°C° 0 mm 2 m/s 766 mmHg 62%
04:00 +10°C° 0 mm 2 m/s 766 mmHg 62%
05:00 +10°C° 0 mm 2 m/s 766 mmHg 61%
06:00 +12°C° 0 mm 3 m/s 766 mmHg 58%
07:00 +13°C° 0 mm 3 m/s 766 mmHg 56%
08:00 +14°C° 0 mm 4 m/s 766 mmHg 53%
09:00 +17°C° 0 mm 3 m/s 766 mmHg 50%
10:00 +18°C° 0 mm 3 m/s 766 mmHg 47%
11:00 +20°C° 0 mm 3 m/s 766 mmHg 44%
12:00 +21°C° 0 mm 3 m/s 766 mmHg 43%
13:00 +21°C° 0 mm 3 m/s 766 mmHg 43%
14:00 +22°C° 0 mm 4 m/s 766 mmHg 43%
15:00 +20°C° 0 mm 4 m/s 766 mmHg 50%
16:00 +19°C° 0 mm 4 m/s 765 mmHg 57%
17:00 +17°C° 0 mm 4 m/s 765 mmHg 64%
18:00 +15°C° 0 mm 4 m/s 766 mmHg 70%
19:00 +15°C° 0 mm 4 m/s 766 mmHg 76%
20:00 +14°C° 0 mm 4 m/s 766 mmHg 82%
21:00 +14°C° 0 mm 3 m/s 766 mmHg 82%
22:00 +13°C° 0 mm 3 m/s 766 mmHg 82%
23:00 +13°C° 0 mm 3 m/s 766 mmHg 82%

Amanhã, 23 Outubro, Sexta-feira

Tempo Temperatura Precipitação Vento Pressão Humidade
00:00 +13°C° 0 mm 3 m/s 766 mmHg 81%
01:00 +13°C° 0 mm 3 m/s 766 mmHg 80%
02:00 +13°C° 0 mm 3 m/s 766 mmHg 78%
03:00 +12°C° 0 mm 3 m/s 766 mmHg 77%
04:00 +12°C° 0 mm 3 m/s 765 mmHg 76%
05:00 +13°C° 0 mm 2 m/s 765 mmHg 75%
06:00 +14°C° 0 mm 2 m/s 765 mmHg 71%
07:00 +15°C° 0 mm 2 m/s 765 mmHg 66%
08:00 +16°C° 0 mm 2 m/s 765 mmHg 62%
09:00 +18°C° 0 mm 2 m/s 765 mmHg 55%
10:00 +20°C° 0 mm 2 m/s 765 mmHg 48%
11:00 +22°C° 0 mm 1 m/s 765 mmHg 41%
12:00 +23°C° 0 mm 2 m/s 765 mmHg 38%
13:00 +24°C° 0 mm 2 m/s 764 mmHg 35%
14:00 +25°C° 0 mm 2 m/s 764 mmHg 31%
15:00 +23°C° 0 mm 2 m/s 764 mmHg 42%
16:00 +20°C° 0 mm 2 m/s 763 mmHg 52%
17:00 +18°C° 0 mm 2 m/s 763 mmHg 63%
18:00 +17°C° 0 mm 2 m/s 763 mmHg 69%
19:00 +16°C° 0 mm 2 m/s 763 mmHg 76%
20:00 +16°C° 0 mm 3 m/s 763 mmHg 83%
21:00 +15°C° 0 mm 2 m/s 763 mmHg 84%
22:00 +15°C° 0 mm 2 m/s 762 mmHg 85%
23:00 +15°C° 0 mm 2 m/s 762 mmHg 85%

Depois de amanhã, 24 Outubro, Sábado

Tempo Temperatura Precipitação Vento Pressão Humidade
00:00 +14°C° 0 mm 2 m/s 762 mmHg 84%
01:00 +14°C° 0 mm 2 m/s 762 mmHg 82%
02:00 +14°C° 0 mm 2 m/s 762 mmHg 81%
03:00 +14°C° 0 mm 1 m/s 762 mmHg 79%
04:00 +13°C° 0 mm 1 m/s 761 mmHg 78%
05:00 +13°C° 0 mm 1 m/s 761 mmHg 76%
06:00 +14°C° 0 mm 1 m/s 761 mmHg 71%
07:00 +16°C° 0 mm 2 m/s 761 mmHg 66%
08:00 +17°C° 0 mm 2 m/s 761 mmHg 61%
09:00 +19°C° 0 mm 2 m/s 761 mmHg 53%
10:00 +21°C° 0 mm 2 m/s 761 mmHg 46%
11:00 +24°C° 0 mm 1 m/s 761 mmHg 38%
12:00 +24°C° 0 mm 2 m/s 760 mmHg 38%
13:00 +25°C° 0 mm 2 m/s 760 mmHg 38%
14:00 +26°C° 0 mm 3 m/s 760 mmHg 38%
15:00 +24°C° 0 mm 3 m/s 760 mmHg 46%
16:00 +21°C° 0 mm 3 m/s 760 mmHg 55%
17:00 +20°C° 0 mm 3 m/s 760 mmHg 64%
18:00 +19°C° 0 mm 3 m/s 760 mmHg 70%
19:00 +18°C° 0 mm 3 m/s 760 mmHg 77%
20:00 +17°C° 0 mm 3 m/s 760 mmHg 83%
21:00 +17°C° 0 mm 3 m/s 760 mmHg 82%
22:00 +17°C° 0 mm 2 m/s 760 mmHg 81%
23:00 +17°C° 0 mm 2 m/s 760 mmHg 79%

, 25 Outubro, Domingo

Tempo Temperatura Precipitação Vento Pressão Humidade
00:00 +17°C° 0 mm 2 m/s 760 mmHg 81%
01:00 +16°C° 0 mm 2 m/s 760 mmHg 82%
02:00 +16°C° 0 mm 2 m/s 760 mmHg 83%
03:00 +16°C° 0 mm 2 m/s 760 mmHg 85%
04:00 +16°C° 0 mm 2 m/s 760 mmHg 86%
05:00 +16°C° 0 mm 1 m/s 760 mmHg 88%
06:00 +16°C° 0 mm 2 m/s 760 mmHg 85%
07:00 +17°C° 0 mm 2 m/s 760 mmHg 81%
08:00 +18°C° 0 mm 2 m/s 761 mmHg 78%
09:00 +19°C° 0 mm 2 m/s 761 mmHg 72%
10:00 +20°C° 0 mm 2 m/s 761 mmHg 66%
11:00 +21°C° 0 mm 2 m/s 761 mmHg 60%
12:00 +21°C° 0 mm 2 m/s 761 mmHg 58%
13:00 +21°C° 0 mm 3 m/s 761 mmHg 57%
14:00 +21°C° 0 mm 3 m/s 761 mmHg 55%
15:00 +20°C° 0 mm 2 m/s 761 mmHg 60%
16:00 +19°C° 0 mm 2 m/s 761 mmHg 66%
17:00 +17°C° 0 mm 2 m/s 761 mmHg 71%
18:00 +17°C° 0 mm 2 m/s 761 mmHg 73%
19:00 +17°C° 0 mm 2 m/s 762 mmHg 74%
20:00 +17°C° 0 mm 2 m/s 762 mmHg 76%
21:00 +17°C° 0 mm 2 m/s 762 mmHg 78%
22:00 +16°C° 0 mm 2 m/s 762 mmHg 80%
23:00 +16°C° 0 mm 2 m/s 762 mmHg 81%

25 Outubro, Domingo

Tempo Temperatura Precipitação Vento Pressão Humidade
00:00 +17°C° 0 mm 2 m/s 760 mmHg 81%
01:00 +16°C° 0 mm 2 m/s 760 mmHg 82%
02:00 +16°C° 0 mm 2 m/s 760 mmHg 83%
03:00 +16°C° 0 mm 2 m/s 760 mmHg 85%
04:00 +16°C° 0 mm 2 m/s 760 mmHg 86%
05:00 +16°C° 0 mm 1 m/s 760 mmHg 88%
06:00 +16°C° 0 mm 2 m/s 760 mmHg 85%
07:00 +17°C° 0 mm 2 m/s 760 mmHg 81%
08:00 +18°C° 0 mm 2 m/s 761 mmHg 78%
09:00 +19°C° 0 mm 2 m/s 761 mmHg 72%
10:00 +20°C° 0 mm 2 m/s 761 mmHg 66%
11:00 +21°C° 0 mm 2 m/s 761 mmHg 60%
12:00 +21°C° 0 mm 2 m/s 761 mmHg 58%
13:00 +21°C° 0 mm 3 m/s 761 mmHg 57%
14:00 +21°C° 0 mm 3 m/s 761 mmHg 55%
15:00 +20°C° 0 mm 2 m/s 761 mmHg 60%
16:00 +19°C° 0 mm 2 m/s 761 mmHg 66%
17:00 +17°C° 0 mm 2 m/s 761 mmHg 71%
18:00 +17°C° 0 mm 2 m/s 761 mmHg 73%
19:00 +17°C° 0 mm 2 m/s 762 mmHg 74%
20:00 +17°C° 0 mm 2 m/s 762 mmHg 76%
21:00 +17°C° 0 mm 2 m/s 762 mmHg 78%
22:00 +16°C° 0 mm 2 m/s 762 mmHg 80%
23:00 +16°C° 0 mm 2 m/s 762 mmHg 81%

26 Outubro, Segunda-feira

Tempo Temperatura Precipitação Vento Pressão Humidade
00:00 +16°C° 0 mm 3 m/s 762 mmHg 82%
01:00 +16°C° 0 mm 3 m/s 762 mmHg 83%
02:00 +16°C° 0 mm 3 m/s 762 mmHg 84%
03:00 +16°C° 0 mm 3 m/s 762 mmHg 85%
04:00 +14°C° 0 mm 4 m/s 762 mmHg 85%
05:00 +14°C° 0 mm 4 m/s 762 mmHg 86%
06:00 +15°C° 0 mm 4 m/s 762 mmHg 82%
07:00 +16°C° 0 mm 5 m/s 763 mmHg 78%
08:00 +17°C° 0 mm 6 m/s 763 mmHg 74%
09:00 +19°C° 0 mm 6 m/s 763 mmHg 69%
10:00 +20°C° 0 mm 7 m/s 763 mmHg 65%
11:00 +21°C° 0 mm 7 m/s 763 mmHg 60%
12:00 +21°C° 0 mm 7 m/s 763 mmHg 59%
13:00 +21°C° 0 mm 7 m/s 763 mmHg 59%
14:00 +21°C° 0 mm 8 m/s 763 mmHg 59%
15:00 +20°C° 0 mm 7 m/s 762 mmHg 62%
16:00 +18°C° 0 mm 7 m/s 762 mmHg 66%
17:00 +17°C° 0 mm 7 m/s 762 mmHg 70%
18:00 +17°C° 0 mm 7 m/s 762 mmHg 71%
19:00 +17°C° 0 mm 7 m/s 762 mmHg 72%
20:00 +17°C° 0 mm 7 m/s 762 mmHg 74%
21:00 +17°C° 0 mm 7 m/s 762 mmHg 73%
22:00 +17°C° 0 mm 7 m/s 762 mmHg 73%
23:00 +17°C° 0 mm 7 m/s 762 mmHg 72%

27 Outubro, Terça-feira

Tempo Temperatura Precipitação Vento Pressão Humidade
00:00 +17°C° 0 mm 7 m/s 762 mmHg 72%
01:00 +16°C° 0 mm 7 m/s 762 mmHg 73%
02:00 +16°C° 0 mm 7 m/s 762 mmHg 73%
03:00 +16°C° 0 mm 7 m/s 762 mmHg 74%
04:00 +16°C° 0 mm 7 m/s 762 mmHg 74%
05:00 +15°C° 0 mm 7 m/s 762 mmHg 75%
06:00 +16°C° 0 mm 7 m/s 762 mmHg 72%
07:00 +16°C° 0 mm 7 m/s 762 mmHg 69%
08:00 +17°C° 0 mm 8 m/s 763 mmHg 65%
09:00 +18°C° 0 mm 8 m/s 763 mmHg 60%
10:00 +20°C° 0 mm 7 m/s 763 mmHg 54%
11:00 +21°C° 0 mm 7 m/s 763 mmHg 48%
12:00 +21°C° 0 mm 8 m/s 762 mmHg 49%
13:00 +21°C° 0 mm 8 m/s 762 mmHg 49%
14:00 +21°C° 0 mm 9 m/s 762 mmHg 49%
15:00 +20°C° 0 mm 8 m/s 762 mmHg 53%
16:00 +18°C° 0 mm 7 m/s 762 mmHg 56%
17:00 +17°C° 0 mm 7 m/s 762 mmHg 60%
18:00 +17°C° 0 mm 7 m/s 762 mmHg 61%
19:00 +17°C° 0 mm 6 m/s 762 mmHg 62%
20:00 +16°C° 0 mm 6 m/s 762 mmHg 63%
21:00 +16°C° 0 mm 6 m/s 762 mmHg 65%
22:00 +15°C° 0 mm 6 m/s 762 mmHg 67%
23:00 +15°C° 0 mm 6 m/s 762 mmHg 69%
Mostrar mais